Total_Precipitation_Accumulation
0.02 0.03 0.03 0.03 0.03 0.03 0.03 0.06 0.07 0.07 0.06 0.08 0.13 0.23 0.37 0.51 0.59 0.75 0.90 0.94 0.99 1.18 1.63 2.05 2.22 2.31 2.62 2.88 3.05 3.02 3.21 3.56 3.77 4.11 4.10 4.33 4.77 5.12 5.26 5.37 5.35 5.27 5.17 5.17
0.04 0.04 0.03 0.03 0.03 0.03 0.02 0.05 0.07 0.09 0.10 0.12 0.19 0.31 0.42 0.52 0.61 0.77 0.97 1.01 0.97 1.17 1.50 1.96 2.19 2.49 2.71 2.86 3.13 3.26 3.41 3.85 4.32 4.83 5.34 5.75 6.09 6.09 6.19 6.14 6.03 5.74 5.55 5.43
0.03 0.03 0.02 0.03 0.03 0.03 0.03 0.05 0.07 0.09 0.13 0.17 0.23 0.42 0.54 0.65 0.73 0.83 0.94 0.99 1.07 1.28 1.59 1.80 2.06 2.37 2.61 2.83 3.11 3.30 3.63 4.26 5.07 5.56 6.02 6.60 6.92 6.63 6.34 6.05 5.97 5.89 5.82 5.70
0.03 0.02 0.02 0.03 0.04 0.04 0.05 0.06 0.06 0.09 0.13 0.25 0.27 0.52 0.80 0.92 1.01 0.94 1.03 1.18 1.31 1.44 1.60 1.79 1.99 2.25 2.54 2.89 3.02 3.24 3.83 4.56 5.22 5.77 6.38 6.98 7.28 7.32 7.10 6.52 6.02 5.60 5.32 5.11
0.03 0.02 0.02 0.03 0.04 0.04 0.05 0.05 0.06 0.10 0.14 0.24 0.28 0.53 1.04 1.26 1.32 1.27 1.31 1.36 1.39 1.42 1.55 1.71 1.88 2.09 2.23 2.57 3.05 3.38 3.96 4.65 5.31 6.05 6.79 7.24 7.47 7.46 7.07 6.27 5.49 4.95 4.63 4.35
0.03 0.04 0.04 0.04 0.04 0.04 0.05 0.07 0.10 0.14 0.20 0.31 0.31 0.51 1.12 1.46 1.67 1.64 1.50 1.53 1.51 1.41 1.40 1.44 1.65 1.83 2.13 2.48 2.87 3.35 3.67 4.28 4.96 5.57 6.14 6.35 6.52 6.46 6.04 5.60 5.10 4.69 4.17 3.71
0.05 0.05 0.05 0.04 0.04 0.05 0.05 0.11 0.27 0.41 0.47 0.43 0.32 0.57 1.17 1.49 1.47 1.46 1.44 1.52 1.49 1.32 1.34 1.55 1.82 1.82 2.09 2.38 2.76 3.21 3.60 3.97 4.48 5.01 5.50 5.73 5.88 5.77 5.30 4.85 4.40 3.98 3.49 3.10
0.13 0.11 0.06 0.04 0.05 0.06 0.05 0.12 0.33 0.53 0.58 0.57 0.53 0.90 1.36 1.38 1.26 1.19 1.17 1.22 1.36 1.39 1.43 1.53 1.67 1.76 2.06 2.30 2.56 2.95 3.30 3.66 3.86 4.08 4.45 4.68 4.82 4.69 4.36 3.89 3.41 3.11 2.82 2.51
0.19 0.16 0.07 0.05 0.05 0.05 0.07 0.11 0.19 0.25 0.32 0.58 0.93 1.23 1.58 1.51 1.39 1.27 1.13 1.15 1.26 1.24 1.28 1.41 1.59 1.71 1.91 2.23 2.58 2.83 2.97 3.18 3.36 3.54 3.61 3.59 3.69 3.60 3.35 3.06 2.75 2.45 2.18 1.93
0.16 0.22 0.10 0.05 0.05 0.07 0.08 0.10 0.15 0.25 0.54 0.81 1.07 1.55 1.89 1.98 1.88 1.74 1.40 1.28 1.22 1.26 1.26 1.30 1.44 1.63 1.73 1.81 2.15 2.46 2.51 2.63 2.72 2.82 2.86 2.78 2.81 2.71 2.63 2.46 2.23 1.97 1.82 1.61
0.18 0.23 0.16 0.09 0.09 0.12 0.12 0.13 0.17 0.26 0.38 0.77 1.17 1.76 1.95 2.21 2.31 2.17 1.79 1.60 1.54 1.48 1.39 1.36 1.42 1.49 1.60 1.73 1.90 2.13 2.30 2.31 2.35 2.47 2.45 2.35 2.40 2.37 2.31 2.18 2.01 1.87 1.80 1.67
0.19 0.25 0.25 0.16 0.14 0.12 0.12 0.16 0.25 0.45 0.48 0.54 1.02 1.94 2.20 2.33 2.28 2.03 1.84 1.70 1.61 1.51 1.36 1.32 1.30 1.27 1.35 1.57 1.79 1.96 2.07 2.07 2.10 2.16 2.23 2.32 2.34 2.25 2.13 1.93 1.80 1.68 1.55 1.40
0.15 0.31 0.56 0.57 0.44 0.24 0.18 0.17 0.23 0.32 0.45 0.61 1.10 2.15 2.59 2.50 2.34 2.06 1.90 1.82 1.77 1.69 1.50 1.40 1.28 1.24 1.29 1.41 1.52 1.67 1.87 1.97 1.98 1.96 1.96 2.13 2.18 2.06 1.90 1.73 1.65 1.56 1.42 1.35
0.12 0.30 0.68 1.15 0.89 0.50 0.32 0.23 0.26 0.40 0.64 0.78 1.06 1.57 1.88 1.98 2.06 2.09 2.19 2.20 2.01 1.80 1.60 1.40 1.32 1.27 1.30 1.39 1.40 1.45 1.58 1.75 1.88 1.98 2.13 2.15 2.06 1.92 1.82 1.62 1.43 1.33 1.24 1.28
0.17 0.36 0.39 0.44 0.43 0.44 0.45 0.37 0.33 0.43 0.54 0.84 1.16 1.51 1.83 1.91 1.94 1.98 2.13 2.05 1.82 1.64 1.48 1.33 1.32 1.39 1.37 1.35 1.34 1.36 1.51 1.60 1.82 1.94 1.94 1.89 1.81 1.74 1.71 1.63 1.47 1.31 1.19 1.14
0.22 0.37 0.40 0.46 0.39 0.47 0.46 0.45 0.47 0.55 0.64 0.87 1.20 1.66 1.88 1.89 1.88 1.93 2.05 2.03 1.83 1.53 1.37 1.29 1.29 1.38 1.33 1.29 1.26 1.23 1.33 1.39 1.54 1.68 1.68 1.60 1.57 1.62 1.57 1.54 1.43 1.33 1.23 1.16
0.31 0.48 0.65 0.66 0.43 0.63 0.91 0.70 0.72 0.80 0.83 1.02 1.41 1.62 1.67 1.77 1.80 1.85 1.98 2.08 1.95 1.68 1.56 1.58 1.59 1.57 1.45 1.34 1.27 1.28 1.34 1.39 1.45 1.52 1.46 1.46 1.47 1.43 1.41 1.28 1.21 1.25 1.27 1.18
0.32 0.52 0.66 0.66 0.81 1.29 1.15 0.65 0.73 0.87 0.89 0.93 1.06 1.20 1.37 1.49 1.59 1.75 1.92 2.07 2.05 1.92 1.88 1.89 1.82 1.67 1.52 1.40 1.35 1.35 1.34 1.40 1.49 1.46 1.38 1.32 1.33 1.29 1.26 1.23 1.21 1.21 1.19 1.13
0.22 0.46 0.71 0.89 1.20 1.39 1.12 0.68 0.66 0.97 1.14 0.90 0.90 0.94 0.99 1.03 1.21 1.62 1.77 1.84 1.90 1.91 1.88 1.79 1.71 1.62 1.50 1.37 1.32 1.29 1.29 1.27 1.29 1.25 1.21 1.13 1.15 1.21 1.22 1.20 1.24 1.20 1.12 1.07
0.22 0.37 0.76 1.01 1.35 1.63 1.36 0.65 0.47 0.83 1.53 1.05 0.89 0.95 1.00 1.14 1.40 1.49 1.39 1.39 1.44 1.48 1.52 1.56 1.55 1.46 1.37 1.28 1.19 1.15 1.18 1.17 1.14 1.12 1.11 1.02 1.02 1.09 1.17 1.18 1.20 1.11 1.04 0.99
0.53 0.60 0.81 1.03 1.34 1.52 0.86 0.51 0.66 1.40 1.78 1.18 1.00 1.04 1.16 1.28 1.28 1.06 0.98 1.05 1.13 1.25 1.30 1.32 1.43 1.45 1.29 1.10 1.04 1.08 1.07 1.07 0.97 0.96 1.02 1.02 1.00 1.02 1.03 1.05 1.09 1.05 0.97 0.94
0.69 0.87 0.96 1.13 1.52 1.66 0.75 0.58 1.02 1.24 0.98 0.93 0.95 0.98 1.00 0.93 0.80 0.77 0.80 0.83 0.87 1.04 1.18 1.19 1.30 1.25 1.09 0.97 1.00 1.06 1.03 0.92 0.86 0.94 1.06 1.07 1.04 0.93 0.91 1.04 1.09 1.02 0.96 0.91
0.56 0.73 0.96 1.19 1.43 1.13 0.64 0.62 0.69 0.67 0.72 0.73 0.74 0.69 0.65 0.65 0.62 0.62 0.70 0.76 0.81 0.91 1.03 1.04 1.09 1.07 1.00 0.96 1.02 1.07 1.01 0.88 0.90 0.99 1.05 1.08 1.02 0.98 0.97 1.00 1.00 0.95 0.90 0.82
0.48 0.37 0.52 0.75 0.79 0.60 0.53 0.50 0.47 0.48 0.57 0.58 0.61 0.65 0.56 0.59 0.61 0.62 0.65 0.73 0.82 0.89 0.91 0.92 0.97 0.97 0.94 0.89 0.90 0.91 0.84 0.82 0.93 1.03 1.01 1.01 1.03 1.02 0.95 0.88 0.84 0.82 0.80 0.75
0.45 0.44 0.57 0.69 0.58 0.51 0.50 0.42 0.38 0.42 0.45 0.48 0.53 0.61 0.61 0.60 0.67 0.66 0.68 0.74 0.80 0.86 0.87 0.90 0.97 0.97 0.87 0.81 0.78 0.76 0.78 0.84 0.95 0.96 0.89 0.88 0.91 0.90 0.85 0.73 0.66 0.65 0.59 0.52
0.36 0.47 0.65 0.70 0.56 0.59 0.54 0.39 0.35 0.43 0.48 0.49 0.53 0.62 0.58 0.57 0.65 0.73 0.75 0.72 0.73 0.79 0.81 0.85 0.85 0.85 0.81 0.72 0.69 0.72 0.74 0.74 0.85 0.84 0.79 0.76 0.79 0.77 0.70 0.65 0.59 0.53 0.41 0.38